timestamp,wind_dir_avg,wind_spd_avg,wind_spd_max_dir,wind_spd_gust,battery_voltage,lat,long
2022-03-31 00:04:01+00:00,229.0,10.68,228.0,13.22,12.41,47.59359,-54.27349
2022-03-31 00:14:01+00:00,227.0,10.38,241.0,15.16,12.33,47.59359,-54.27349
2022-03-31 00:24:01+00:00,227.0,11.41,236.0,17.99,12.33,47.59359,-54.27349
2022-03-31 00:34:01+00:00,225.0,11.17,231.0,14.85,12.33,47.59359,-54.27349
2022-03-31 00:44:01+00:00,227.0,10.73,248.0,15.76,12.33,47.59359,-54.27349
2022-03-31 00:54:01+00:00,225.0,10.47,229.0,13.03,12.33,47.59359,-54.27349
2022-03-31 01:04:01+00:00,226.0,11.07,223.0,13.08,12.33,47.59359,-54.27349
2022-03-31 01:14:00+00:00,227.0,9.98,235.0,13.69,12.33,47.59359,-54.27349
2022-03-31 01:24:00+00:00,231.0,10.29,238.0,12.44,12.33,47.59359,-54.27349
2022-03-31 01:34:00+00:00,231.0,9.98,242.0,12.45,12.33,47.59359,-54.27349
2022-03-31 01:44:00+00:00,236.0,10.25,234.0,12.22,12.33,47.59359,-54.27349
2022-03-31 01:54:00+00:00,240.0,11.02,240.0,12.24,12.33,47.59359,-54.27349
2022-03-31 02:04:00+00:00,237.0,10.53,234.0,12.24,12.33,47.59359,-54.27349
2022-03-31 02:14:00+00:00,237.0,10.98,238.0,12.49,12.25,47.59359,-54.27349
2022-03-31 02:24:00+00:00,240.0,11.07,237.0,11.88,12.25,47.59359,-54.27349
2022-03-31 02:34:00+00:00,241.0,10.83,241.0,11.72,12.25,47.59359,-54.27349
2022-03-31 02:44:00+00:00,236.0,9.76,237.0,11.48,12.25,47.59359,-54.27349
2022-03-31 02:54:00+00:00,243.0,10.24,246.0,11.38,12.25,47.59359,-54.27349
2022-03-31 03:04:00+00:00,244.0,10.72,239.0,11.8,12.25,47.59359,-54.27349
2022-03-31 03:14:01+00:00,246.0,10.67,245.0,11.8,12.25,47.59359,-54.27349
2022-03-31 03:24:01+00:00,246.0,11.12,250.0,13.94,12.25,47.59359,-54.27349
2022-03-31 03:34:01+00:00,246.0,10.08,245.0,10.79,12.25,47.59359,-54.27349
2022-03-31 03:44:01+00:00,244.0,10.43,248.0,11.36,12.25,47.59359,-54.27349
2022-03-31 03:54:01+00:00,245.0,9.95,244.0,11.05,12.25,47.59359,-54.27349
2022-03-31 04:04:01+00:00,250.0,10.39,246.0,11.29,12.25,47.59359,-54.27349
2022-03-31 04:14:01+00:00,253.0,10.21,254.0,11.36,12.25,47.59359,-54.27349
2022-03-31 04:24:01+00:00,249.0,9.25,249.0,11.31,12.25,47.59359,-54.27349
2022-03-31 04:34:01+00:00,247.0,10.33,251.0,11.55,12.25,47.59359,-54.27349
2022-03-31 04:44:01+00:00,246.0,10.89,245.0,11.79,12.25,47.59359,-54.27349
2022-03-31 04:54:01+00:00,245.0,10.6,248.0,11.55,12.25,47.59359,-54.27349
2022-03-31 05:04:01+00:00,250.0,9.59,256.0,12.07,12.25,47.59359,-54.27349
2022-03-31 05:14:00+00:00,249.0,10.09,249.0,10.7,12.17,47.59359,-54.27349
2022-03-31 05:24:00+00:00,248.0,10.45,248.0,10.98,12.17,47.59359,-54.27349
2022-03-31 05:34:00+00:00,251.0,10.15,249.0,10.82,12.17,47.59359,-54.27349
2022-03-31 05:44:00+00:00,249.0,9.76,249.0,10.55,12.17,47.59359,-54.27349
2022-03-31 05:54:00+00:00,245.0,7.49,249.0,9.68,12.17,47.59359,-54.27349
2022-03-31 06:04:00+00:00,245.0,8.08,249.0,9.7,12.17,47.59359,-54.27349
2022-03-31 06:14:00+00:00,246.0,7.36,251.0,9.51,12.17,47.59359,-54.27349
2022-03-31 06:24:00+00:00,248.0,5.78,253.0,9.2,12.17,47.59359,-54.27349
2022-03-31 06:34:00+00:00,259.0,9.37,260.0,9.92,12.17,47.59359,-54.27349
2022-03-31 06:44:00+00:00,261.0,9.77,258.0,10.45,12.17,47.59359,-54.27349
2022-03-31 06:54:00+00:00,262.0,9.29,263.0,9.76,12.17,47.59359,-54.27349
2022-03-31 07:04:00+00:00,262.0,9.59,260.0,10.17,12.17,47.59359,-54.27349
2022-03-31 07:14:00+00:00,259.0,9.36,260.0,9.72,12.17,47.59359,-54.27349
2022-03-31 07:24:00+00:00,252.0,6.26,256.0,9.18,12.17,47.59359,-54.27349
2022-03-31 07:34:00+00:00,248.0,4.94,257.0,7.26,12.17,47.59359,-54.27349
2022-03-31 07:44:00+00:00,250.0,5.06,255.0,8.72,12.17,47.59359,-54.27349
2022-03-31 07:54:00+00:00,243.0,4.88,255.0,8.76,12.17,47.59359,-54.27349
2022-03-31 08:04:00+00:00,249.0,4.24,253.0,5.0,12.17,47.59359,-54.27349
2022-03-31 08:14:00+00:00,258.0,4.64,267.0,8.5,12.17,47.59359,-54.27349
2022-03-31 08:24:00+00:00,266.0,7.34,266.0,9.09,12.17,47.59359,-54.27349
2022-03-31 08:34:00+00:00,267.0,7.44,267.0,9.13,12.17,47.59359,-54.27349
2022-03-31 08:44:00+00:00,265.0,3.83,263.0,4.09,12.17,47.59359,-54.27349
2022-03-31 08:54:00+00:00,274.0,4.53,274.0,8.73,12.17,47.59359,-54.27349
2022-03-31 09:04:00+00:00,287.0,5.68,283.0,9.11,12.17,47.59359,-54.27349
2022-03-31 09:14:01+00:00,281.0,8.11,280.0,9.62,12.09,47.59359,-54.27349
2022-03-31 09:24:01+00:00,278.0,4.75,276.0,8.8,12.09,47.59359,-54.27349
2022-03-31 09:34:01+00:00,274.0,8.76,276.0,9.81,12.09,47.59359,-54.27349
2022-03-31 09:44:01+00:00,279.0,8.81,280.0,9.9,12.09,47.59359,-54.27349
2022-03-31 09:54:01+00:00,283.0,9.69,288.0,10.42,12.09,47.59359,-54.27349
2022-03-31 10:04:01+00:00,275.0,9.07,275.0,10.16,12.09,47.59359,-54.27349
2022-03-31 10:14:01+00:00,277.0,8.65,278.0,10.29,12.81,47.59359,-54.27349
2022-03-31 10:24:01+00:00,280.0,9.94,283.0,10.98,12.81,47.59359,-54.27349
2022-03-31 10:34:01+00:00,286.0,9.24,281.0,10.74,12.81,47.59359,-54.27349
2022-03-31 10:44:01+00:00,287.0,10.64,286.0,11.36,12.81,47.59359,-54.27349
2022-03-31 10:54:01+00:00,293.0,10.36,298.0,11.69,12.81,47.59359,-54.27349
2022-03-31 11:04:01+00:00,296.0,10.56,298.0,12.05,12.81,47.59359,-54.27349
2022-03-31 11:14:00+00:00,298.0,10.76,298.0,11.81,13.92,47.59359,-54.27349
2022-03-31 11:24:00+00:00,300.0,11.01,302.0,12.17,13.92,47.59359,-54.27349
2022-03-31 11:34:00+00:00,296.0,10.97,300.0,11.82,13.92,47.59359,-54.27349
2022-03-31 11:44:00+00:00,302.0,10.93,301.0,11.99,13.92,47.59359,-54.27349
2022-03-31 11:54:00+00:00,304.0,9.52,300.0,12.11,13.92,47.59359,-54.27349
2022-03-31 12:04:00+00:00,291.0,10.4,287.0,11.31,13.92,47.59359,-54.27349
2022-03-31 12:14:01+00:00,301.0,8.85,289.0,12.79,14.32,47.59359,-54.27349
2022-03-31 12:24:01+00:00,296.0,10.5,300.0,12.15,14.32,47.59359,-54.27349
2022-03-31 12:34:01+00:00,299.0,10.42,298.0,11.14,14.32,47.59359,-54.27349
2022-03-31 12:44:01+00:00,297.0,9.83,292.0,11.4,14.32,47.59359,-54.27349
2022-03-31 12:54:01+00:00,301.0,10.9,299.0,11.97,14.32,47.59359,-54.27349
2022-03-31 13:04:01+00:00,289.0,10.25,287.0,11.3,14.32,47.59359,-54.27349
2022-03-31 13:14:00+00:00,292.0,10.13,290.0,11.07,14.48,47.59359,-54.27349
2022-03-31 13:24:00+00:00,300.0,10.44,301.0,12.29,14.48,47.59359,-54.27349
2022-03-31 13:34:00+00:00,305.0,8.49,307.0,11.71,14.48,47.59359,-54.27349
2022-03-31 13:44:00+00:00,302.0,8.96,298.0,11.17,14.48,47.59359,-54.27349
2022-03-31 13:54:00+00:00,315.0,9.15,313.0,11.82,14.48,47.59359,-54.27349
2022-03-31 14:04:00+00:00,303.0,8.31,288.0,10.96,14.48,47.59359,-54.27349
2022-03-31 14:14:00+00:00,294.0,9.58,299.0,11.61,13.84,47.59359,-54.27349
2022-03-31 14:24:00+00:00,323.0,9.88,321.0,10.84,13.84,47.59359,-54.27349
2022-03-31 14:34:00+00:00,338.0,8.75,340.0,9.78,13.84,47.59359,-54.27349
2022-03-31 14:44:00+00:00,325.0,10.11,326.0,11.38,13.84,47.59359,-54.27349
2022-03-31 14:54:00+00:00,341.0,9.94,337.0,11.52,13.84,47.59359,-54.27349
2022-03-31 15:04:00+00:00,331.0,9.66,322.0,11.17,13.84,47.59359,-54.27349
2022-03-31 15:14:01+00:00,348.0,8.96,347.0,11.42,13.76,47.59359,-54.27349
2022-03-31 15:24:01+00:00,335.0,8.98,338.0,9.95,13.76,47.59359,-54.27349
2022-03-31 15:34:01+00:00,328.0,7.12,329.0,7.79,13.76,47.59359,-54.27349
2022-03-31 15:44:01+00:00,311.0,10.96,308.0,12.41,13.76,47.59359,-54.27349
2022-03-31 15:54:01+00:00,314.0,9.23,316.0,11.01,13.76,47.59359,-54.27349
2022-03-31 16:04:01+00:00,330.0,9.99,323.0,11.2,13.76,47.59359,-54.27349
2022-03-31 16:14:01+00:00,331.0,10.11,327.0,12.47,13.76,47.59359,-54.27349
2022-03-31 16:24:01+00:00,321.0,10.67,318.0,12.5,13.76,47.59359,-54.27349
2022-03-31 16:34:01+00:00,324.0,10.11,313.0,12.01,13.76,47.59359,-54.27349
2022-03-31 16:44:01+00:00,319.0,9.74,321.0,10.73,13.76,47.59359,-54.27349
2022-03-31 16:54:01+00:00,323.0,9.23,322.0,11.28,13.76,47.59359,-54.27349
2022-03-31 17:04:01+00:00,329.0,8.91,337.0,10.59,13.76,47.59359,-54.27349
2022-03-31 17:14:01+00:00,320.0,8.38,320.0,10.1,13.84,47.59359,-54.27349
2022-03-31 17:24:01+00:00,314.0,7.73,311.0,8.82,13.84,47.59359,-54.27349
2022-03-31 17:34:01+00:00,322.0,9.04,326.0,9.97,13.84,47.59359,-54.27349
2022-03-31 17:44:01+00:00,298.0,7.4,289.0,9.98,13.84,47.59359,-54.27349
2022-03-31 17:54:01+00:00,301.0,9.8,303.0,11.51,13.84,47.59359,-54.27349
2022-03-31 18:04:01+00:00,314.0,8.42,316.0,10.95,13.84,47.59359,-54.27349
2022-03-31 18:14:01+00:00,308.0,6.83,306.0,7.98,14.0,47.59359,-54.27349
2022-03-31 18:24:01+00:00,305.0,7.72,305.0,8.47,14.0,47.59359,-54.27349
2022-03-31 18:34:01+00:00,297.0,11.03,300.0,13.31,14.0,47.59359,-54.27349
2022-03-31 18:44:01+00:00,308.0,8.46,314.0,9.85,14.0,47.59359,-54.27349
2022-03-31 18:54:01+00:00,319.0,9.77,315.0,12.74,14.0,47.59359,-54.27349
2022-03-31 19:04:01+00:00,303.0,9.84,307.0,11.77,14.0,47.59359,-54.27349
2022-03-31 19:14:01+00:00,304.0,8.63,307.0,10.33,13.68,47.59359,-54.27349
2022-03-31 19:24:01+00:00,301.0,8.81,294.0,13.29,13.68,47.59359,-54.27349
2022-03-31 19:34:01+00:00,305.0,9.94,299.0,13.81,13.68,47.59359,-54.27349
2022-03-31 19:44:01+00:00,325.0,11.68,328.0,13.4,13.68,47.59359,-54.27349
2022-03-31 19:54:01+00:00,323.0,9.46,321.0,10.72,13.68,47.59359,-54.27349
2022-03-31 20:04:01+00:00,323.0,10.76,324.0,13.57,13.68,47.59359,-54.27349
2022-03-31 20:14:00+00:00,321.0,11.2,318.0,12.59,13.76,47.59359,-54.27349
2022-03-31 20:24:00+00:00,324.0,9.92,322.0,11.25,13.76,47.59359,-54.27349
2022-03-31 20:34:00+00:00,321.0,7.5,322.0,8.31,13.76,47.59359,-54.27349
2022-03-31 20:44:00+00:00,312.0,6.85,313.0,7.83,13.76,47.59359,-54.27349
2022-03-31 20:54:00+00:00,311.0,7.44,316.0,8.75,13.76,47.59359,-54.27349
2022-03-31 21:04:00+00:00,316.0,8.75,324.0,10.86,13.76,47.59359,-54.27349
2022-03-31 21:14:01+00:00,316.0,8.02,316.0,8.76,13.68,47.59359,-54.27349
2022-03-31 21:24:01+00:00,324.0,7.03,323.0,8.48,13.68,47.59359,-54.27349
2022-03-31 21:34:01+00:00,329.0,11.1,329.0,12.06,13.68,47.59359,-54.27349
2022-03-31 21:44:01+00:00,329.0,9.26,329.0,10.99,13.68,47.59359,-54.27349
2022-03-31 21:54:01+00:00,327.0,8.25,330.0,9.21,13.68,47.59359,-54.27349
2022-03-31 22:04:01+00:00,322.0,9.58,323.0,10.93,13.68,47.59359,-54.27349
2022-03-31 22:14:01+00:00,326.0,9.41,323.0,10.34,13.05,47.59359,-54.27349
2022-03-31 22:24:01+00:00,324.0,9.05,324.0,10.71,13.05,47.59359,-54.27349
2022-03-31 22:34:01+00:00,321.0,10.07,321.0,11.58,13.05,47.59359,-54.27349
2022-03-31 22:44:01+00:00,320.0,7.62,321.0,8.63,13.05,47.59359,-54.27349
2022-03-31 22:54:01+00:00,317.0,7.45,319.0,8.3,13.05,47.59359,-54.27349
2022-03-31 23:04:01+00:00,317.0,7.76,324.0,9.03,13.05,47.59359,-54.27349
2022-03-31 23:14:01+00:00,320.0,7.8,318.0,8.76,12.57,47.59359,-54.27349
2022-03-31 23:24:01+00:00,316.0,7.17,320.0,8.21,12.57,47.59359,-54.27349
2022-03-31 23:34:01+00:00,326.0,7.59,335.0,8.87,12.57,47.59359,-54.27349
2022-03-31 23:44:01+00:00,320.0,7.06,320.0,8.2,12.57,47.59359,-54.27349
2022-03-31 23:54:01+00:00,322.0,8.35,313.0,9.92,12.57,47.59359,-54.27349
